OneWeb SL0244

operational
NORAD ID: 48776 Int'l Des: 2021-045 Owner: ONEWEBN Country: UK Constellation: oneweb
LEOCIRCULARPOLARONEWEB_TYPE

Über OneWeb SL0244

Beschreibung wird geladen...

Live-Position

3D-Globus wird geladen...

Nächste Überflüge

Höhenverlauf

Altitude vs Time

uPlot chart will show altitude changes over time

Zweizeiliger Elementsatz

1 48776U 21045K 25304.75033458 .00000100 00000-0 23133-3 0 9999
2 48776 87.8971 304.7473 0001916 95.7626 264.3722 13.15548086214930
Epoch: 31. Okt. 2025 • Age: 15 hours

Aktueller Status

Höhe 1213.9 km
Geschwindigkeit 7.25 km/s
Subsatellitenpunkt 82.11°N, 68.15°W
Startdatum 28. Mai 2021
Alter 4.4 years
Typ internet

Technische Details

Klassifizierung Payload
Masse 148.00 kg
Trockenmasse 140.00 kg
Gesamtmasse 148.00 kg
Länge 1.30 m
Durchmesser 1.00 m
Spannweite 5.00 m
Form Trapezoid+2 pan
Hersteller ONEWUS
Bus-Typ ARROW
Phasenstatus In Orbit
Besitzer/Staat ONEWEBN/UK

Große Konstellationen

Loading constellations...